GW3006 Weather Reports


time (UTC)temp
F
wind
direction
speed
knots
gust
knots
rain 1hr
in
rain 24hr
in
rain mn
in
humidity
%
barometer
mb
20260510091804 61 349 4.3 7.8 0.00 0.00 0.00 52 1011.9
20260510090903 60 355 4.3 9.6 0.00 0.00 0.00 53 1011.9
20260510090003 61 5 4.3 8.7 0.00 0.00 0.00 54 1012.0
20260510085403 61 4 3.5 7.0 0.00 0.00 0.00 55 1011.9
20260510084503 60 13 3.5 9.6 0.00 0.00 0.00 58 1012.0
20260510083625 60 14 3.5 7.8 0.00 0.00 0.00 60 1011.9
20260510082703 60 2 3.5 9.6 0.00 0.00 0.00 61 1012.0
20260510081803 59 22 3.5 9.6 0.00 0.00 0.00 64 1011.9
20260510080904 58 19 3.5 9.6 0.00 0.00 0.00 64 1012.2
20260510080003 59 2 3.5 7.8 0.00 0.00 0.00 63 1012.2
20260510075403 59 7 3.5 7.8 0.00 0.00 0.00 63 1012.3
20260510074503 59 26 3.5 8.7 0.00 0.00 0.00 64 1012.5
20260510073603 59 13 3.5 7.8 0.00 0.00 0.00 65 1012.3
20260510072724 59 1 3.5 7.8 0.00 0.00 0.00 66 1012.5
20260510071803 58 7 3.5 9.6 0.00 0.00 0.00 68 1012.4
20260510070903 58 11 2.6 7.8 0.00 0.00 0.00 68 1012.6
20260510070003 57 9 3.5 7.8 0.00 0.00 0.00 71 1012.4
20260510065425 57 3 2.6 7.8 0.00 0.00 0.00 70 1012.5
20260510064503 56 7 3.5 7.8 0.00 0.00 0.00 73 1012.5
20260510063603 56 23 2.6 7.8 0.00 0.00 0.00 74 1012.4
20260510062703 56 2 2.6 6.1 0.00 0.00 0.00 77 1012.7
20260510061803 55 29 2.6 7.0 0.00 0.00 0.00 78 1012.3
20260510060903 54 17 2.6 7.8 0.00 0.00 0.00 81 1012.4
20260510060024 54 14 2.6 5.2 0.00 0.00 0.00 84 1012.5
20260510055403 53 9 1.7 6.1 0.00 0.00 0.00 85 1012.3
20260510054503 53 17 1.7 6.1 0.00 0.00 0.00 86 1012.4
20260510053603 52 7 1.7 5.2 0.00 0.00 0.00 87 1012.6
20260510052704 52 8 2.6 5.2 0.00 0.00 0.00 88 1012.4
20260510051805 51 8 2.6 6.1 0.00 0.00 0.00 89 1012.4
20260510050903 51 7 1.7 5.2 0.00 0.00 0.00 89 1012.4
20260510050003 50 1 1.7 3.5 0.00 0.00 0.00 89 1012.5
20260510045403 50 7 1.7 3.5 0.00 0.00 0.00 89 1012.5
20260510044503 50 8 1.7 2.6 0.00 0.00 0.00 89 1012.4
20260510043624 50 4 0.9 3.5 0.00 0.00 0.00 89 1012.5
20260510042703 50 3 0.9 2.6 0.00 0.00 0.00 89 1012.6
20260510041805 50 8 1.7 2.6 0.00 0.00 0.00 89 1012.3
20260510040903 50 10 1.7 2.6 0.00 0.00 0.00 89 1012.4
20260510040024 50 19 0.9 1.7 0.00 0.00 0.00 89 1012.2
20260510035403 50 19 0.9 3.5 0.00 0.00 0.00 89 1012.1
20260510034503 50 3 1.7 3.5 0.00 0.00 0.00 89 1012.2
20260510033603 50 5 1.7 2.6 0.00 0.00 0.00 89 1012.3
20260510032703 50 8 1.7 3.5 0.00 0.00 0.00 89 1012.3
20260510031804 51 7 1.7 3.5 0.00 0.00 0.00 89 1012.2
20260510030903 51 10 1.7 2.6 0.00 0.00 0.00 88 1012.6
20260510030003 51 4 1.7 3.5 0.00 0.00 0.00 88 1012.7
20260510025405 51 9 0.9 3.5 0.00 0.00 0.00 88 1012.4
20260510024504 51 16 0.9 1.7 0.00 0.00 0.00 88 1012.6
20260510023603 51 19 0.9 1.7 0.00 0.00 0.00 88 1012.7
20260510022703 51 11 0.9 2.6 0.00 0.00 0.00 88 1012.7
20260510021803 51 6 0.9 2.6 0.00 0.00 0.00 88 1012.5
20260510020924 52 4 1.7 3.5 0.00 0.00 0.00 88 1012.8
20260510020003 51 6 1.7 3.5 0.00 0.00 0.00 88 1012.5
20260510015403 51 4 0.9 2.6 0.00 0.00 0.00 88 1012.9
20260510014504 51 7 0.9 2.6 0.00 0.00 0.00 88 1012.6
20260510013603 51 10 0.9 2.6 0.00 0.00 0.00 88 1012.9
20260510012703 51 9 0.9 3.5 0.00 0.00 0.00 87 1013.0
20260510011824 51 18 0.9 2.6 0.00 0.00 0.00 87 1012.9
20260510010903 52 12 1.7 2.6 0.00 0.00 0.00 86 1012.8
20260510010003 52 3 1.7 2.6 0.00 0.00 0.00 86 1012.8
20260510005403 52 360 1.7 3.5 0.00 0.00 0.00 85 1013.0
20260510004503 52 6 0.9 1.7 0.00 0.00 0.00 85 1012.8
20260510003603 52 3 0.9 1.7 0.00 0.00 0.00 84 1012.9
20260510002703 52 17 0.9 2.6 0.00 0.00 0.00 84 1013.1
20260510001825 52 6 0.9 2.6 0.00 0.00 0.00 83 1013.2
20260510000903 52 10 0.9 2.6 0.00 0.00 0.00 83 1012.9
20260510000003 52 10 0.9 2.6 0.00 0.00 0.00 83 1013.5
20260509235403 52 10 1.7 3.5 0.00 0.00 0.00 83 1013.2
20260509234503 52 11 1.7 2.6 0.00 0.00 0.00 82 1013.5
20260509233624 52 9 1.7 2.6 0.00 0.00 0.00 82 1013.4
20260509232703 53 17 0.9 1.7 0.00 0.00 0.00 82 1013.6
20260509231803 53 12 0.9 2.6 0.00 0.00 0.00 81 1013.7
20260509230903 53 28 0.9 2.6 0.00 0.00 0.00 80 1013.5
20260509230024 53 19 0.9 2.6 0.00 0.00 0.00 80 1013.7
20260509225404 53 13 1.7 2.6 0.00 0.00 0.00 80 1013.6
20260509224503 53 9 1.7 3.5 0.00 0.00 0.00 79 1013.7
20260509223603 54 3 1.7 3.5 0.00 0.00 0.00 79 1013.8
20260509222703 54 5 1.7 2.6 0.00 0.00 0.00 78 1013.5
20260509221805 54 3 1.7 5.2 0.00 0.00 0.00 78 1013.6
20260509220903 54 9 1.7 5.2 0.00 0.00 0.00 77 1013.6
20260509220003 54 13 1.7 5.2 0.00 0.00 0.00 77 1013.4
20260509215403 54 8 1.7 5.2 0.00 0.00 0.00 76 1013.5
20260509214503 54 9 1.7 3.5 0.00 0.00 0.00 75 1013.8
20260509213604 54 10 0.9 3.5 0.00 0.00 0.00 74 1013.9
20260509212724 54 8 0.9 3.5 0.00 0.00 0.00 74 1013.7
20260509211824 54 2 0.9 3.5 0.00 0.00 0.00 75 1013.6
20260509210903 54 12 0.0 1.7 0.00 0.00 0.00 74 1013.6
20260509210003 55 16 0.0 1.7 0.00 0.00 0.00 73 1013.7
20260509205403 55 1 0.0 1.7 0.00 0.00 0.00 72 1013.5
20260509204524 56 14 0.9 2.6 0.00 0.00 0.00 70 1013.5
20260509203603 56 16 0.0 2.6 0.00 0.00 0.00 70 1013.4
20260509202704 56 21 0.0 2.6 0.00 0.00 0.00 68 1013.5
20260509201824 57 2 0.0 1.7 0.00 0.00 0.00 68 1013.5
20260509200903 57 13 0.0 3.5 0.00 0.00 0.00 67 1013.4
20260509200003 57 9 0.9 2.6 0.00 0.00 0.00 66 1013.2
20260509195403 58 14 0.9 3.5 0.00 0.00 0.00 65 1013.4
20260509194503 58 4 0.9 3.5 0.00 0.00 0.00 65 1013.0
20260509193603 58 2 0.9 2.6 0.00 0.00 0.00 64 1013.0
20260509192703 59 9 0.9 5.2 0.00 0.00 0.00 64 1013.1
20260509191804 59 9 0.9 5.2 0.00 0.00 0.00 64 1013.0
20260509190924 59 10 0.9 2.6 0.00 0.00 0.00 63 1012.8
20260509190003 60 6 0.9 5.2 0.00 0.00 0.00 63 1013.0
20260509185403 60 1 0.9 5.2 0.00 0.00 0.00 62 1013.0
20260509184525 61 14 0.9 3.5 0.00 0.00 0.00 62 1013.1
20260509183604 61 5 1.7 5.2 0.00 0.00 0.00 61 1013.1
20260509182703 62 14 1.7 7.8 0.00 0.00 0.00 60 1012.7
20260509181804 62 358 1.7 7.0 0.00 0.00 0.00 59 1012.7
20260509180903 63 7 0.9 7.0 0.00 0.00 0.00 59 1012.9
20260509180004 63 7 1.7 7.0 0.00 0.00 0.00 59 1012.8
20260509175403 63 358 1.7 7.8 0.00 0.00 0.00 58 1012.9
20260509174503 64 9 1.7 7.0 0.00 0.00 0.00 58 1012.9
20260509173625 64 359 2.6 9.6 0.00 0.00 0.00 58 1012.8
20260509172704 65 6 1.7 9.6 0.00 0.00 0.00 57 1012.9
20260509171803 65 12 2.6 8.7 0.00 0.00 0.00 57 1012.6
20260509170903 66 360 4.3 9.6 0.00 0.00 0.00 57 1012.4
20260509170003 66 360 3.5 7.0 0.00 0.00 0.00 56 1012.5
20260509165403 66 4 3.5 8.7 0.00 0.00 0.00 55 1012.8
20260509164503 67 3 3.5 7.8 0.00 0.00 0.00 54 1012.7
20260509163604 67 358 4.3 10.4 0.00 0.00 0.00 56 1012.5
20260509162703 68 359 3.5 7.8 0.00 0.00 0.00 54 1012.6
20260509161806 68 5 4.3 10.4 0.00 0.00 0.00 55 1012.7
20260509160903 68 357 4.3 9.6 0.00 0.00 0.00 54 1012.8
20260509160003 68 360 3.5 7.8 0.00 0.00 0.00 53 1012.4
20260509155403 69 1 3.5 7.8 0.00 0.00 0.00 54 1012.7
20260509154524 69 8 2.6 7.0 0.00 0.00 0.00 53 1012.6
20260509153603 69 3 1.7 7.0 0.00 0.00 0.00 51 1012.6
20260509152724 71 9 1.7 5.2 0.00 0.00 0.00 47 1012.7
20260509151803 70 3 1.7 7.0 0.00 0.00 0.00 47 1012.3
20260509150903 71 16 0.0 6.1 0.00 0.00 0.00 47 1012.4
20260509150003 70 354 0.9 2.6 0.00 0.00 0.00 47 1012.6
20260509145404 68 356 1.7 7.0 0.00 0.00 0.00 49 1012.6
20260509144503 70 11 1.7 7.0 0.00 0.00 0.00 48 1012.5
20260509143603 72 358 0.9 6.1 0.00 0.00 0.00 46 1012.8
20260509142703 72 19 0.9 3.5 0.00 0.00 0.00 45 1012.8
20260509141803 69 12 0.9 3.5 0.00 0.00 0.00 49 1012.9
20260509140924 69 16 1.7 5.2 0.00 0.00 0.00 49 1012.8
20260509140003 71 359 1.7 6.1 0.00 0.00 0.00 47 1012.8
20260509135424 72 358 0.9 6.1 0.00 0.00 0.00 46 1012.9
20260509134503 70 336 0.0 1.7 0.00 0.00 0.00 47 1012.9
20260509133603 70 15 1.7 5.2 0.00 0.00 0.00 48 1013.2
20260509132724 72 3 0.9 3.5 0.00 0.00 0.00 45 1013.1
20260509131803 71 3 1.7 6.1 0.00 0.00 0.00 47 1013.0
20260509130903 72 344 0.9 3.5 0.00 0.00 0.00 46 1013.0
20260509130003 70 354 0.9 3.5 0.00 0.00 0.00 49 1013.5
20260509125403 68 6 1.7 5.2 0.00 0.00 0.00 50 1013.8
20260509124503 70 349 0.9 3.5 0.00 0.00 0.00 49 1013.5
20260509123603 71 1 0.9 2.6 0.00 0.00 0.00 47 1013.7
20260509122724 69 348 1.7 7.0 0.00 0.00 0.00 49 1013.7
20260509121803 71 11 0.9 5.2 0.00 0.00 0.00 47 1013.9
20260509120904 71 6 0.9 5.2 0.00 0.00 0.00 47 1013.9
20260509120003 71 10 0.9 3.5 0.00 0.00 0.00 46 1013.9
20260509115405 72 21 0.9 3.5 0.00 0.00 0.00 47 1014.1
20260509114503 72 206 0.9 3.5 0.00 0.00 0.00 44 1014.1
20260509113603 72 317 0.9 5.2 0.00 0.00 0.00 45 1014.2
20260509112703 69 351 0.0 1.7 0.00 0.00 0.00 48 1014.4
20260509111803 71 4 0.9 6.1 0.00 0.00 0.00 44 1014.3
20260509110903 70 349 0.9 2.6 0.00 0.00 0.00 47 1014.4
20260509110004 70 356 0.9 6.1 0.00 0.00 0.00 47 1014.4
20260509105404 70 350 0.9 6.1 0.00 0.00 0.00 47 1014.6
20260509104525 71 328 0.0 3.5 0.00 0.00 0.00 46 1014.8
20260509103603 70 7 0.9 5.2 0.00 0.00 0.00 47 1014.5
20260509102724 70 18 0.9 3.5 0.00 0.00 0.00 47 1014.7
20260509101803 70 332 0.9 3.5 0.00 0.00 0.00 47 1014.7
20260509100903 71 84 0.9 6.1 0.00 0.00 0.00 46 1014.9
20260509100004 69 335 0.9 2.6 0.00 0.00 0.00 47 1014.8
20260509095424 69 326 0.9 2.6 0.00 0.00 0.00 48 1014.8
20260509094504 69 346 0.9 2.6 0.00 0.00 0.00 48 1014.9
20260509093624 69 344 0.9 5.2 0.00 0.00 0.00 49 1014.8
20260509092703 69 350 0.0 2.6 0.00 0.00 0.00 50 1015.2